Time,TemperatureF,DewpointF,PressureIn,WindDirection,WindDirectionDegrees,WindSpeedMPH,WindSpeedGustMPH,Humidity,HourlyPrecipIn,Conditions,Clouds,dailyrainin,SoftwareType,DateUTC
2013-03-18 00:00:00,39.2,32.5,30.09,SSW,205,3.0,8.1,77,0.00,,,-99.99,FreeWX-Wi 1.01,2013-03-18 07:00:00,
2013-03-18 00:05:00,39.0,32.4,30.09,SSW,201,3.0,5.4,77,0.00,,,-99.99,FreeWX-Wi 1.01,2013-03-18 07:05:00,
2013-03-18 00:10:00,39.0,32.4,-100.00,SSW,199,3.0,8.7,77,0.00,,,-99.99,FreeWX-Wi 1.01,2013-03-18 07:10:00,
2013-03-18 00:15:00,38.8,32.2,-100.00,SSW,198,3.0,4.0,77,0.00,,,-99.99,FreeWX-Wi 1.01,2013-03-18 07:15:00,
2013-03-18 00:20:00,38.8,32.2,-100.00,South,191,3.0,5.8,77,0.00,,,-99.99,FreeWX-Wi 1.01,2013-03-18 07:20:00,
2013-03-18 00:25:00,38.8,32.5,-100.00,South,191,3.0,3.6,78,0.00,,,-99.99,FreeWX-Wi 1.01,2013-03-18 07:25:00,
2013-03-18 00:30:00,38.8,32.5,30.06,South,189,3.0,6.3,78,0.00,,,-99.99,FreeWX-Wi 1.01,2013-03-18 07:30:00,
2013-03-18 00:35:00,38.8,32.5,30.06,South,188,3.0,8.1,78,0.00,,,-99.99,FreeWX-Wi 1.01,2013-03-18 07:35:00,
2013-03-18 00:40:00,38.8,32.5,30.06,South,190,3.0,8.1,78,0.00,,,-99.99,FreeWX-Wi 1.01,2013-03-18 07:40:00,
2013-03-18 00:45:00,39.0,32.7,30.06,South,191,3.0,5.8,78,0.00,,,-99.99,FreeWX-Wi 1.01,2013-03-18 07:45:00,
2013-03-18 00:50:00,39.0,32.7,30.06,SSW,193,3.0,15.0,78,0.00,,,-99.99,FreeWX-Wi 1.01,2013-03-18 07:50:00,
2013-03-18 00:55:00,39.0,32.7,-100.00,South,191,3.0,8.3,78,0.00,,,-99.99,FreeWX-Wi 1.01,2013-03-18 07:55:00,
2013-03-18 01:00:00,39.0,32.7,-100.00,SSW,196,3.0,5.4,78,0.00,,,-99.99,FreeWX-Wi 1.01,2013-03-18 08:00:00,
2013-03-18 01:05:00,39.0,32.7,-100.00,SSW,195,3.0,5.4,78,0.00,,,-99.99,FreeWX-Wi 1.01,2013-03-18 08:05:00,
2013-03-18 01:10:00,38.8,32.5,-100.00,SSW,200,3.0,4.9,78,0.00,,,-99.99,FreeWX-Wi 1.01,2013-03-18 08:10:00,
2013-03-18 01:15:00,38.8,32.5,-100.00,SSW,201,3.0,4.0,78,0.00,,,-99.99,FreeWX-Wi 1.01,2013-03-18 08:15:00,
2013-03-18 01:20:00,38.8,32.5,30.06,SSW,203,3.0,8.7,78,0.00,,,-99.99,FreeWX-Wi 1.01,2013-03-18 08:20:00,
2013-03-18 01:25:00,39.0,32.7,30.06,SSW,202,3.0,6.3,78,0.00,,,-99.99,FreeWX-Wi 1.01,2013-03-18 08:25:00,
2013-03-18 01:30:00,39.0,32.7,30.06,SSW,200,3.0,5.8,78,0.00,,,-99.99,FreeWX-Wi 1.01,2013-03-18 08:30:00,
2013-03-18 01:35:00,39.0,32.7,30.06,SSW,200,3.0,7.2,78,0.00,,,-99.99,FreeWX-Wi 1.01,2013-03-18 08:35:00,
2013-03-18 01:40:00,39.0,32.7,30.06,SSW,199,3.0,7.6,78,0.00,,,-99.99,FreeWX-Wi 1.01,2013-03-18 08:40:00,
2013-03-18 01:45:00,39.0,32.7,30.06,SSW,195,3.0,6.3,78,0.00,,,-99.99,FreeWX-Wi 1.01,2013-03-18 08:45:00,
2013-03-18 01:50:00,39.0,32.7,30.06,SSW,192,3.0,10.1,78,0.00,,,-99.99,FreeWX-Wi 1.01,2013-03-18 08:50:00,
2013-03-18 01:55:00,39.0,32.7,-100.00,South,189,4.0,12.3,78,0.00,,,-99.99,FreeWX-Wi 1.01,2013-03-18 08:55:00,
2013-03-18 02:00:00,39.0,32.7,30.06,South,187,4.0,4.0,78,0.00,,,-99.99,FreeWX-Wi 1.01,2013-03-18 09:00:00,
2013-03-18 02:05:00,39.0,32.7,30.06,South,187,4.0,5.8,78,0.00,,,-99.99,FreeWX-Wi 1.01,2013-03-18 09:05:00,
2013-03-18 02:10:00,39.0,32.7,30.06,South,188,4.0,11.0,78,0.00,,,-99.99,FreeWX-Wi 1.01,2013-03-18 09:10:00,
2013-03-18 02:15:00,39.0,32.7,-100.00,South,189,4.0,8.3,78,0.00,,,-99.99,FreeWX-Wi 1.01,2013-03-18 09:15:00,
2013-03-18 02:20:00,39.0,32.7,30.06,South,188,4.0,4.9,78,0.00,,,-99.99,FreeWX-Wi 1.01,2013-03-18 09:20:00,
2013-03-18 02:25:00,39.0,32.7,30.06,South,186,4.0,8.1,78,0.00,,,-99.99,FreeWX-Wi 1.01,2013-03-18 09:25:00,
2013-03-18 02:30:00,39.0,32.7,30.06,South,184,4.0,4.0,78,0.00,,,-99.99,FreeWX-Wi 1.01,2013-03-18 09:30:00,
2013-03-18 02:35:00,39.0,32.7,-100.00,South,184,3.0,8.1,78,0.00,,,-99.99,FreeWX-Wi 1.01,2013-03-18 09:35:00,
2013-03-18 02:40:00,39.2,32.5,30.06,South,187,3.0,11.0,77,0.00,,,-99.99,FreeWX-Wi 1.01,2013-03-18 09:40:00,
2013-03-18 02:45:00,39.0,32.7,30.06,South,186,3.0,6.3,78,0.00,,,-99.99,FreeWX-Wi 1.01,2013-03-18 09:45:00,
2013-03-18 02:50:00,38.8,32.5,-100.00,South,186,3.0,6.7,78,0.00,,,-99.99,FreeWX-Wi 1.01,2013-03-18 09:50:00,
2013-03-18 02:55:00,38.8,32.5,-100.00,South,184,3.0,8.3,78,0.00,,,-99.99,FreeWX-Wi 1.01,2013-03-18 09:55:00,
2013-03-18 03:00:00,38.7,32.4,-100.00,South,183,3.0,8.3,78,0.00,,,-99.99,FreeWX-Wi 1.01,2013-03-18 10:00:00,
2013-03-18 03:05:00,38.7,32.4,-100.00,South,182,4.0,10.1,78,0.00,,,-99.99,FreeWX-Wi 1.01,2013-03-18 10:05:00,
2013-03-18 03:10:00,38.8,32.5,30.03,South,182,4.0,12.3,78,0.00,,,-99.99,FreeWX-Wi 1.01,2013-03-18 10:10:00,
2013-03-18 03:15:00,38.8,32.5,-100.00,South,184,4.0,11.0,78,0.00,,,-99.99,FreeWX-Wi 1.01,2013-03-18 10:15:00,
2013-03-18 03:20:00,38.8,32.5,-100.00,South,190,4.0,10.5,78,0.00,,,-99.99,FreeWX-Wi 1.01,2013-03-18 10:20:00,
2013-03-18 03:25:00,38.8,32.5,30.03,South,190,4.0,10.5,78,0.00,,,-99.99,FreeWX-Wi 1.01,2013-03-18 10:25:00,
2013-03-18 03:30:00,38.8,32.5,-100.00,South,190,4.0,10.5,78,0.00,,,-99.99,FreeWX-Wi 1.01,2013-03-18 10:30:00,
2013-03-18 03:35:00,39.0,32.7,30.03,South,191,5.0,9.6,78,0.00,,,-99.99,FreeWX-Wi 1.01,2013-03-18 10:35:00,
2013-03-18 03:40:00,39.0,32.7,30.03,SSW,192,5.0,7.2,78,0.00,,,-99.99,FreeWX-Wi 1.01,2013-03-18 10:40:00,
2013-03-18 03:45:00,39.2,32.5,-100.00,SSW,194,5.0,10.5,77,0.00,,,-99.99,FreeWX-Wi 1.01,2013-03-18 10:45:00,
2013-03-18 03:50:00,39.2,32.5,-100.00,SSW,197,5.0,11.0,77,0.00,,,-99.99,FreeWX-Wi 1.01,2013-03-18 10:50:00,
2013-03-18 03:55:00,39.4,32.5,-100.00,SSW,196,5.0,10.1,76,0.00,,,-99.99,FreeWX-Wi 1.01,2013-03-18 10:55:00,
2013-03-18 04:00:00,39.4,32.5,-100.00,SSW,199,5.0,8.7,76,0.00,,,-99.99,FreeWX-Wi 1.01,2013-03-18 11:00:00,
2013-03-18 04:05:00,39.6,32.7,-100.00,SSW,197,5.0,10.1,76,0.00,,,-99.99,FreeWX-Wi 1.01,2013-03-18 11:05:00,
2013-03-18 04:10:00,39.6,32.7,30.03,SSW,197,5.0,10.1,76,0.00,,,-99.99,FreeWX-Wi 1.01,2013-03-18 11:10:00,
2013-03-18 04:15:00,39.6,32.4,-100.00,SSW,199,5.0,10.5,75,0.00,,,-99.99,FreeWX-Wi 1.01,2013-03-18 11:15:00,
2013-03-18 04:20:00,39.6,32.4,-100.00,SSW,199,5.0,12.3,75,0.00,,,-99.99,FreeWX-Wi 1.01,2013-03-18 11:20:00,
2013-03-18 04:25:00,39.4,32.5,-100.00,SSW,198,5.0,8.3,76,0.00,,,-99.99,FreeWX-Wi 1.01,2013-03-18 11:25:00,
2013-03-18 04:30:00,39.4,32.2,30.03,SSW,200,5.0,8.7,75,0.00,,,-99.99,FreeWX-Wi 1.01,2013-03-18 11:30:00,
2013-03-18 04:35:00,39.6,32.4,-100.00,SSW,200,5.0,8.3,75,0.00,,,-99.99,FreeWX-Wi 1.01,2013-03-18 11:35:00,
2013-03-18 04:40:00,39.6,32.4,30.03,SSW,201,5.0,10.5,75,0.00,,,-99.99,FreeWX-Wi 1.01,2013-03-18 11:40:00,
2013-03-18 04:45:00,39.6,32.4,30.03,SSW,200,4.0,8.3,75,0.00,,,-99.99,FreeWX-Wi 1.01,2013-03-18 11:45:00,
2013-03-18 04:50:00,39.6,32.4,-100.00,SSW,203,4.0,8.3,75,0.00,,,-99.99,FreeWX-Wi 1.01,2013-03-18 11:50:00,
2013-03-18 04:55:00,39.7,32.5,30.03,SSW,202,5.0,8.7,75,0.00,,,-99.99,FreeWX-Wi 1.01,2013-03-18 11:55:00,
2013-03-18 05:00:00,39.7,32.5,-100.00,SSW,202,5.0,10.5,75,0.00,,,-99.99,FreeWX-Wi 1.01,2013-03-18 12:00:00,
2013-03-18 05:05:00,39.7,32.2,30.03,SSW,204,4.0,7.6,74,0.00,,,-99.99,FreeWX-Wi 1.01,2013-03-18 12:05:00,
2013-03-18 05:10:00,39.7,32.2,30.03,SSW,203,5.0,8.7,74,0.00,,,-99.99,FreeWX-Wi 1.01,2013-03-18 12:10:00,
2013-03-18 05:15:00,39.7,32.2,-100.00,SSW,202,5.0,12.8,74,0.00,,,-99.99,FreeWX-Wi 1.01,2013-03-18 12:15:00,
2013-03-18 05:20:00,39.7,32.2,-100.00,SSW,201,5.0,8.3,74,0.00,,,-99.99,FreeWX-Wi 1.01,2013-03-18 12:20:00,
2013-03-18 05:25:00,39.7,32.5,-100.00,SSW,202,5.0,12.3,75,0.00,,,-99.99,FreeWX-Wi 1.01,2013-03-18 12:25:00,
2013-03-18 05:30:00,39.6,32.4,-100.00,SSW,201,5.0,18.3,75,0.00,,,-99.99,FreeWX-Wi 1.01,2013-03-18 12:30:00,
2013-03-18 05:35:00,39.6,32.4,-100.00,SSW,200,6.0,12.3,75,0.00,,,-99.99,FreeWX-Wi 1.01,2013-03-18 12:35:00,
2013-03-18 05:40:00,39.6,32.4,-100.00,SSW,201,6.0,8.1,75,0.00,,,-99.99,FreeWX-Wi 1.01,2013-03-18 12:40:00,
2013-03-18 05:45:00,39.6,32.4,30.03,SSW,200,6.0,12.8,75,0.00,,,-99.99,FreeWX-Wi 1.01,2013-03-18 12:45:00,
2013-03-18 05:50:00,39.6,32.7,-100.00,SSW,201,6.0,11.0,76,0.00,,,-99.99,FreeWX-Wi 1.01,2013-03-18 12:50:00,
2013-03-18 05:55:00,39.4,32.5,-100.00,SSW,201,6.0,9.6,76,0.00,,,-99.99,FreeWX-Wi 1.01,2013-03-18 12:55:00,
2013-03-18 06:00:00,39.4,32.5,-100.00,SSW,201,6.0,12.3,76,0.00,,,-99.99,FreeWX-Wi 1.01,2013-03-18 13:00:00,
2013-03-18 06:05:00,39.4,32.5,-100.00,SSW,203,6.0,15.0,76,0.00,,,-99.99,FreeWX-Wi 1.01,2013-03-18 13:05:00,
2013-03-18 06:10:00,39.4,32.5,30.03,SSW,201,6.0,8.1,76,0.00,,,-99.99,FreeWX-Wi 1.01,2013-03-18 13:10:00,
2013-03-18 06:15:00,39.6,32.7,30.03,SSW,204,6.0,12.3,76,0.00,,,-99.99,FreeWX-Wi 1.01,2013-03-18 13:15:00,
2013-03-18 06:20:00,39.6,32.7,-100.00,SSW,205,6.0,8.1,76,0.00,,,-99.99,FreeWX-Wi 1.01,2013-03-18 13:20:00,
2013-03-18 06:25:00,39.6,32.7,-100.00,SSW,203,6.0,17.0,76,0.00,,,-99.99,FreeWX-Wi 1.01,2013-03-18 13:25:00,
2013-03-18 06:30:00,39.6,32.7,-100.00,SSW,205,5.0,6.7,76,0.00,,,-99.99,FreeWX-Wi 1.01,2013-03-18 13:30:00,
2013-03-18 06:35:00,39.7,33.1,-100.00,SSW,207,5.0,8.1,77,0.00,,,-99.99,FreeWX-Wi 1.01,2013-03-18 13:35:00,
2013-03-18 06:40:00,39.7,32.7,30.03,SSW,205,5.0,7.6,76,0.00,,,-99.99,FreeWX-Wi 1.01,2013-03-18 13:40:00,
2013-03-18 06:45:00,39.9,32.9,30.03,SSW,208,5.0,11.9,76,0.00,,,-99.99,FreeWX-Wi 1.01,2013-03-18 13:45:00,
2013-03-18 06:50:00,39.9,32.9,-100.00,SSW,207,5.0,5.0,76,0.00,,,-99.99,FreeWX-Wi 1.01,2013-03-18 13:50:00,
2013-03-18 06:55:00,39.9,32.9,30.03,SSW,210,5.0,10.1,76,0.00,,,-99.99,FreeWX-Wi 1.01,2013-03-18 13:55:00,
2013-03-18 07:00:00,40.1,33.1,-100.00,SSW,212,4.0,6.3,76,0.00,,,-99.99,FreeWX-Wi 1.01,2013-03-18 14:00:00,
2013-03-18 07:05:00,40.1,33.1,30.03,SW,215,4.0,8.3,76,0.00,,,-99.99,FreeWX-Wi 1.01,2013-03-18 14:05:00,
2013-03-18 07:10:00,40.1,33.4,30.03,SW,217,4.0,10.5,77,0.00,,,-99.99,FreeWX-Wi 1.01,2013-03-18 14:10:00,
2013-03-18 07:15:00,39.9,33.3,-100.00,SW,220,4.0,8.1,77,0.00,,,-99.99,FreeWX-Wi 1.01,2013-03-18 14:15:00,
2013-03-18 07:20:00,39.9,33.3,30.03,SW,223,4.0,4.0,77,0.00,,,-99.99,FreeWX-Wi 1.01,2013-03-18 14:20:00,
2013-03-18 07:25:00,39.9,33.3,-100.00,SW,228,4.0,7.6,77,0.00,,,-99.99,FreeWX-Wi 1.01,2013-03-18 14:25:00,
2013-03-18 07:30:00,39.9,33.3,30.03,SW,228,4.0,9.6,77,0.00,,,-99.99,FreeWX-Wi 1.01,2013-03-18 14:30:00,
2013-03-18 07:35:00,39.9,33.3,-100.00,SW,230,4.0,9.2,77,0.00,,,-99.99,FreeWX-Wi 1.01,2013-03-18 14:35:00,
2013-03-18 07:40:00,39.9,33.6,-100.00,SW,230,4.0,4.0,78,0.00,,,-99.99,FreeWX-Wi 1.01,2013-03-18 14:40:00,
2013-03-18 07:45:00,39.9,33.6,-100.00,SW,230,4.0,6.3,78,0.00,,,-99.99,FreeWX-Wi 1.01,2013-03-18 14:45:00,
2013-03-18 07:50:00,39.9,33.6,-100.00,SW,226,4.0,7.2,78,0.00,,,-99.99,FreeWX-Wi 1.01,2013-03-18 14:50:00,
2013-03-18 07:55:00,39.9,33.6,30.03,SW,230,4.0,4.0,78,0.00,,,-99.99,FreeWX-Wi 1.01,2013-03-18 14:55:00,
2013-03-18 08:00:00,40.1,33.8,30.03,SW,231,4.0,8.7,78,0.00,,,-99.99,FreeWX-Wi 1.01,2013-03-18 15:00:00,
2013-03-18 08:05:00,40.1,34.2,-100.00,SW,228,4.0,5.8,79,0.00,,,-99.99,FreeWX-Wi 1.01,2013-03-18 15:05:00,
2013-03-18 08:10:00,40.1,34.2,-100.00,SW,226,4.0,4.5,79,0.00,,,-99.99,FreeWX-Wi 1.01,2013-03-18 15:10:00,
2013-03-18 08:15:00,40.3,34.3,-100.00,SW,225,3.0,3.6,79,0.00,,,-99.99,FreeWX-Wi 1.01,2013-03-18 15:15:00,
2013-03-18 08:20:00,40.3,34.3,30.03,SW,226,3.0,4.9,79,0.00,,,-99.99,FreeWX-Wi 1.01,2013-03-18 15:20:00,
2013-03-18 08:25:00,40.3,34.3,-100.00,SW,223,3.0,8.3,79,0.00,,,-99.99,FreeWX-Wi 1.01,2013-03-18 15:25:00,
2013-03-18 08:30:00,40.3,34.3,30.03,SW,222,3.0,7.2,79,0.00,,,-99.99,FreeWX-Wi 1.01,2013-03-18 15:30:00,
2013-03-18 08:35:00,40.3,34.3,-100.00,SW,217,3.0,5.8,79,0.00,,,-99.99,FreeWX-Wi 1.01,2013-03-18 15:35:00,
2013-03-18 08:40:00,40.5,34.5,-100.00,SW,216,3.0,6.3,79,0.00,,,-99.99,FreeWX-Wi 1.01,2013-03-18 15:40:00,
2013-03-18 08:45:00,40.6,34.7,30.03,SW,219,3.0,4.0,79,0.00,,,-99.99,FreeWX-Wi 1.01,2013-03-18 15:45:00,
2013-03-18 08:50:00,40.6,34.9,-100.00,SW,219,3.0,5.4,80,0.00,,,-99.99,FreeWX-Wi 1.01,2013-03-18 15:50:00,
2013-03-18 08:55:00,40.6,34.7,-100.00,SW,219,3.0,3.6,79,0.00,,,-99.99,FreeWX-Wi 1.01,2013-03-18 15:55:00,
2013-03-18 09:00:00,40.8,34.9,30.06,SW,225,3.0,6.3,79,0.00,,,-99.99,FreeWX-Wi 1.01,2013-03-18 16:00:00,
2013-03-18 09:05:00,41.0,35.1,30.06,SW,223,3.0,10.1,79,0.00,,,-99.99,FreeWX-Wi 1.01,2013-03-18 16:05:00,
2013-03-18 09:10:00,41.0,35.1,30.06,SW,223,3.0,5.4,79,0.00,,,-99.99,FreeWX-Wi 1.01,2013-03-18 16:10:00,
2013-03-18 09:15:00,41.0,35.1,30.06,SW,224,3.0,5.8,79,0.00,,,-99.99,FreeWX-Wi 1.01,2013-03-18 16:15:00,
2013-03-18 09:20:00,41.2,35.2,-100.00,SW,226,3.0,5.8,79,0.00,,,-99.99,FreeWX-Wi 1.01,2013-03-18 16:20:00,
2013-03-18 09:25:00,41.4,35.4,-100.00,SW,228,3.0,11.0,79,0.00,,,-99.99,FreeWX-Wi 1.01,2013-03-18 16:25:00,
2013-03-18 09:30:00,41.2,35.2,-100.00,SW,226,3.0,8.1,79,0.00,,,-99.99,FreeWX-Wi 1.01,2013-03-18 16:30:00,
2013-03-18 09:35:00,41.2,35.4,30.06,SW,226,3.0,5.4,80,0.00,,,-99.99,FreeWX-Wi 1.01,2013-03-18 16:35:00,
2013-03-18 09:40:00,41.2,35.8,-100.00,SW,227,3.0,8.1,81,0.00,,,-99.99,FreeWX-Wi 1.01,2013-03-18 16:40:00,
2013-03-18 09:45:00,41.2,36.1,-100.00,SW,226,3.0,3.6,82,0.00,,,-99.99,FreeWX-Wi 1.01,2013-03-18 16:45:00,
2013-03-18 09:50:00,41.0,36.0,-100.00,SW,228,3.0,3.0,82,0.00,,,-99.99,FreeWX-Wi 1.01,2013-03-18 16:50:00,
2013-03-18 09:55:00,41.0,36.3,-100.00,SW,230,3.0,0.0,83,0.00,,,-99.99,FreeWX-Wi 1.01,2013-03-18 16:55:00,
2013-03-18 10:00:00,41.0,36.9,-100.00,SW,233,3.0,3.0,85,0.00,,,-99.99,FreeWX-Wi 1.01,2013-03-18 17:00:00,
2013-03-18 10:10:00,41.0,37.2,30.06,SW,235,3.0,0.0,86,0.00,,,-99.99,FreeWX-Wi 1.01,2013-03-18 17:10:00,
2013-03-18 10:15:00,41.2,37.4,-100.00,SW,233,3.0,3.0,86,0.00,,,-99.99,FreeWX-Wi 1.01,2013-03-18 17:15:00,
2013-03-18 10:20:00,41.2,37.9,-100.00,SW,231,3.0,4.0,88,0.00,,,-99.99,FreeWX-Wi 1.01,2013-03-18 17:20:00,
2013-03-18 10:25:00,41.7,38.7,-100.00,SW,232,3.0,3.6,89,0.00,,,-99.99,FreeWX-Wi 1.01,2013-03-18 17:25:00,
2013-03-18 10:30:00,43.5,41.0,-100.00,SW,229,3.0,5.4,91,0.00,,,-99.99,FreeWX-Wi 1.01,2013-03-18 17:30:00,
2013-03-18 10:35:00,44.2,42.1,-100.00,SW,228,3.0,6.3,92,0.00,,,-99.99,FreeWX-Wi 1.01,2013-03-18 17:35:00,
2013-03-18 10:40:00,44.2,41.5,-100.00,SW,227,3.0,5.8,90,0.00,,,-99.99,FreeWX-Wi 1.01,2013-03-18 17:40:00,
2013-03-18 10:45:00,44.8,41.4,-100.00,SW,227,3.0,5.8,88,0.00,,,-99.99,FreeWX-Wi 1.01,2013-03-18 17:45:00,
2013-03-18 10:50:00,45.3,41.4,-100.00,SW,228,3.0,4.0,86,0.00,,,-99.99,FreeWX-Wi 1.01,2013-03-18 17:50:00,
2013-03-18 10:55:00,45.7,40.8,-100.00,SW,227,3.0,4.9,83,0.00,,,-99.99,FreeWX-Wi 1.01,2013-03-18 17:55:00,
2013-03-18 11:00:00,45.9,40.3,-100.00,SW,225,3.0,4.9,81,0.00,,,-99.99,FreeWX-Wi 1.01,2013-03-18 18:00:00,
2013-03-18 11:05:00,45.9,39.4,-100.00,SW,227,3.0,3.6,78,0.00,,,-99.99,FreeWX-Wi 1.01,2013-03-18 18:05:00,
2013-03-18 11:10:00,46.0,38.5,30.09,SW,227,3.0,4.0,75,0.00,,,-99.99,FreeWX-Wi 1.01,2013-03-18 18:10:00,
2013-03-18 11:15:00,46.4,38.8,-100.00,SW,228,3.0,3.1,75,0.00,,,-99.99,FreeWX-Wi 1.01,2013-03-18 18:15:00,
2013-03-18 11:20:00,46.8,38.8,30.09,SW,230,2.0,2.7,74,0.00,,,-99.99,FreeWX-Wi 1.01,2013-03-18 18:20:00,
2013-03-18 11:25:00,46.8,38.3,-100.00,SW,227,2.0,4.0,72,0.00,,,-99.99,FreeWX-Wi 1.01,2013-03-18 18:25:00,
2013-03-18 11:30:00,46.8,37.9,-100.00,SW,225,2.0,3.6,71,0.00,,,-99.99,FreeWX-Wi 1.01,2013-03-18 18:30:00,
2013-03-18 11:35:00,46.6,37.8,30.09,SW,227,2.0,3.6,71,0.00,,,-99.99,FreeWX-Wi 1.01,2013-03-18 18:35:00,
2013-03-18 11:40:00,46.9,37.8,30.09,SW,226,2.0,4.0,70,0.00,,,-99.99,FreeWX-Wi 1.01,2013-03-18 18:40:00,
2013-03-18 11:46:00,47.3,37.2,30.09,SW,224,2.0,3.6,68,0.00,,,-99.99,FreeWX-Wi 1.01,2013-03-18 18:46:00,
2013-03-18 11:51:00,48.9,39.2,-100.00,SW,225,2.0,3.6,69,0.00,,,-99.99,FreeWX-Wi 1.01,2013-03-18 18:51:00,
2013-03-18 11:56:00,50.4,37.8,30.09,SW,226,2.0,5.8,62,0.00,,,-99.99,FreeWX-Wi 1.01,2013-03-18 18:56:00,
2013-03-18 12:01:00,50.9,35.8,30.09,SW,225,2.0,4.5,56,0.00,,,-99.99,FreeWX-Wi 1.01,2013-03-18 19:01:00,
2013-03-18 12:06:00,50.2,35.1,-100.00,SW,224,2.0,7.2,56,0.00,,,-99.99,FreeWX-Wi 1.01,2013-03-18 19:06:00,
2013-03-18 12:11:00,51.8,37.0,30.09,SW,219,2.0,5.8,57,0.00,,,-99.99,FreeWX-Wi 1.01,2013-03-18 19:11:00,
2013-03-18 12:16:00,51.6,34.2,30.09,SW,216,2.0,8.1,51,0.00,,,-99.99,FreeWX-Wi 1.01,2013-03-18 19:16:00,
2013-03-18 12:21:00,51.4,33.4,30.09,SSW,213,2.0,7.6,50,0.00,,,-99.99,FreeWX-Wi 1.01,2013-03-18 19:21:00,
2013-03-18 12:26:00,51.6,34.5,30.09,SW,220,2.0,3.6,52,0.00,,,-99.99,FreeWX-Wi 1.01,2013-03-18 19:26:00,
2013-03-18 12:31:00,53.1,34.9,30.09,SW,219,3.0,5.8,50,0.00,,,-99.99,FreeWX-Wi 1.01,2013-03-18 19:31:00,
2013-03-18 12:36:00,53.2,35.6,-100.00,SW,223,3.0,3.0,51,0.00,,,-99.99,FreeWX-Wi 1.01,2013-03-18 19:36:00,
2013-03-18 12:41:00,52.3,33.3,30.09,SW,228,3.0,4.0,48,0.00,,,-99.99,FreeWX-Wi 1.01,2013-03-18 19:41:00,
2013-03-18 12:46:00,51.6,32.5,30.09,SW,225,3.0,5.8,48,0.00,,,-99.99,FreeWX-Wi 1.01,2013-03-18 19:46:00,
2013-03-18 12:51:00,51.8,32.2,30.09,SW,221,3.0,6.3,47,0.00,,,-99.99,FreeWX-Wi 1.01,2013-03-18 19:51:00,
2013-03-18 12:56:00,52.5,33.4,-100.00,SW,228,3.0,4.0,48,0.00,,,-99.99,FreeWX-Wi 1.01,2013-03-18 19:56:00,
2013-03-18 13:01:00,54.7,33.8,-100.00,SW,229,3.0,9.2,45,0.00,,,-99.99,FreeWX-Wi 1.01,2013-03-18 20:01:00,
2013-03-18 13:06:00,55.9,34.3,-100.00,SW,229,3.0,3.1,44,0.00,,,-99.99,FreeWX-Wi 1.01,2013-03-18 20:06:00,
2013-03-18 13:11:00,55.9,32.0,-100.00,SW,229,3.0,6.3,40,0.00,,,-99.99,FreeWX-Wi 1.01,2013-03-18 20:11:00,
2013-03-18 13:16:00,56.5,33.6,-100.00,SW,231,3.0,3.1,42,0.00,,,-99.99,FreeWX-Wi 1.01,2013-03-18 20:16:00,
2013-03-18 13:21:00,57.2,32.5,30.09,SW,233,3.0,6.3,39,0.00,,,-99.99,FreeWX-Wi 1.01,2013-03-18 20:21:00,
2013-03-18 13:26:00,57.4,33.3,-100.00,SW,229,3.0,4.0,40,0.00,,,-99.99,FreeWX-Wi 1.01,2013-03-18 20:26:00,
2013-03-18 13:31:00,57.0,32.4,30.09,SW,228,3.0,3.0,39,0.00,,,-99.99,FreeWX-Wi 1.01,2013-03-18 20:31:00,
2013-03-18 13:36:00,57.0,31.6,-100.00,SW,230,3.0,4.0,38,0.00,,,-99.99,FreeWX-Wi 1.01,2013-03-18 20:36:00,
2013-03-18 13:41:00,55.4,30.2,30.09,SW,230,3.0,4.0,38,0.00,,,-99.99,FreeWX-Wi 1.01,2013-03-18 20:41:00,
2013-03-18 13:46:00,54.5,30.0,-100.00,SW,225,3.0,3.6,39,0.00,,,-99.99,FreeWX-Wi 1.01,2013-03-18 20:46:00,
2013-03-18 13:51:00,53.6,29.3,-100.00,SW,222,3.0,4.5,39,0.00,,,-99.99,FreeWX-Wi 1.01,2013-03-18 20:51:00,
2013-03-18 13:56:00,52.7,28.4,-100.00,SW,219,3.0,3.6,39,0.00,,,-99.99,FreeWX-Wi 1.01,2013-03-18 20:56:00,
2013-03-18 14:01:00,52.0,27.9,-100.00,SW,217,3.0,3.6,39,0.00,,,-99.99,FreeWX-Wi 1.01,2013-03-18 21:01:00,
2013-03-18 14:06:00,52.0,27.9,-100.00,SW,214,2.0,3.6,39,0.00,,,-99.99,FreeWX-Wi 1.01,2013-03-18 21:06:00,
2013-03-18 14:11:00,52.3,28.0,30.09,SSW,211,2.0,3.6,39,0.00,,,-99.99,FreeWX-Wi 1.01,2013-03-18 21:11:00,
2013-03-18 14:16:00,52.3,28.0,-100.00,SSW,208,2.0,6.3,39,0.00,,,-99.99,FreeWX-Wi 1.01,2013-03-18 21:16:00,
2013-03-18 14:21:00,52.5,29.5,30.09,SSW,208,2.0,3.6,41,0.00,,,-99.99,FreeWX-Wi 1.01,2013-03-18 21:21:00,
2013-03-18 14:26:00,54.3,31.6,30.09,SW,214,2.0,4.9,42,0.00,,,-99.99,FreeWX-Wi 1.01,2013-03-18 21:26:00,
2013-03-18 14:31:00,54.7,29.7,-100.00,SSW,211,2.0,6.3,38,0.00,,,-99.99,FreeWX-Wi 1.01,2013-03-18 21:31:00,
2013-03-18 14:41:00,54.0,29.7,30.09,SW,215,2.0,3.6,39,0.00,,,-99.99,FreeWX-Wi 1.01,2013-03-18 21:41:00,
2013-03-18 14:46:00,53.4,30.4,-100.00,SW,222,2.0,3.1,41,0.00,,,-99.99,FreeWX-Wi 1.01,2013-03-18 21:46:00,
2013-03-18 14:52:00,53.4,30.4,30.09,SSW,213,2.0,4.0,41,0.00,,,-99.99,FreeWX-Wi 1.01,2013-03-18 21:52:00,
2013-03-18 14:57:00,55.0,31.1,-100.00,SSW,213,2.0,2.2,40,0.00,,,-99.99,FreeWX-Wi 1.01,2013-03-18 21:57:00,
2013-03-18 15:02:00,56.3,30.4,-100.00,SSW,210,2.0,4.0,37,0.00,,,-99.99,FreeWX-Wi 1.01,2013-03-18 22:02:00,
2013-03-18 15:07:00,56.1,30.2,-100.00,SSW,210,2.0,4.0,37,0.00,,,-99.99,FreeWX-Wi 1.01,2013-03-18 22:07:00,
2013-03-18 15:12:00,57.2,30.6,-100.00,SW,214,2.0,3.6,36,0.00,,,-99.99,FreeWX-Wi 1.01,2013-03-18 22:12:00,
2013-03-18 15:17:00,57.0,30.9,-100.00,SW,220,2.0,5.4,37,0.00,,,-99.99,FreeWX-Wi 1.01,2013-03-18 22:17:00,
2013-03-18 15:22:00,54.9,32.2,-100.00,SW,216,2.0,6.3,42,0.00,,,-99.99,FreeWX-Wi 1.01,2013-03-18 22:22:00,
2013-03-18 15:27:00,53.2,31.8,30.09,SSW,199,2.0,5.4,44,0.00,,,-99.99,FreeWX-Wi 1.01,2013-03-18 22:27:00,
2013-03-18 15:32:00,52.2,32.5,-100.00,South,183,2.0,4.0,47,0.00,,,-99.99,FreeWX-Wi 1.01,2013-03-18 22:32:00,
2013-03-18 15:37:00,51.6,32.5,-100.00,SSE,160,2.0,7.6,48,0.00,,,-99.99,FreeWX-Wi 1.01,2013-03-18 22:37:00,
2013-03-18 15:42:00,50.7,32.7,-100.00,ESE,107,2.0,8.7,50,0.00,,,-99.99,FreeWX-Wi 1.01,2013-03-18 22:42:00,
2013-03-18 15:52:00,49.6,32.2,-100.00,East,82,2.0,2.7,51,0.00,,,-99.99,FreeWX-Wi 1.01,2013-03-18 22:52:00,
2013-03-18 15:57:00,49.1,31.8,30.09,ENE,73,2.0,8.1,51,0.00,,,-99.99,FreeWX-Wi 1.01,2013-03-18 22:57:00,
2013-03-18 16:02:00,48.6,32.2,-100.00,ENE,67,2.0,3.1,53,0.00,,,-99.99,FreeWX-Wi 1.01,2013-03-18 23:02:00,
2013-03-18 16:07:00,48.2,32.4,-100.00,ENE,75,2.0,7.2,54,0.00,,,-99.99,FreeWX-Wi 1.01,2013-03-18 23:07:00,
2013-03-18 16:12:00,48.0,32.7,30.09,ENE,72,3.0,6.7,55,0.00,,,-99.99,FreeWX-Wi 1.01,2013-03-18 23:12:00,
2013-03-18 16:17:00,47.8,32.9,30.09,ENE,68,3.0,4.0,56,0.00,,,-99.99,FreeWX-Wi 1.01,2013-03-18 23:17:00,
2013-03-18 16:22:00,47.7,32.4,-100.00,ENE,58,3.0,5.8,55,0.00,,,-99.99,FreeWX-Wi 1.01,2013-03-18 23:22:00,
2013-03-18 16:27:00,47.5,32.2,30.09,NE,56,3.0,4.0,55,0.00,,,-99.99,FreeWX-Wi 1.01,2013-03-18 23:27:00,
2013-03-18 16:32:00,47.5,31.6,30.09,ENE,59,3.0,5.8,54,0.00,,,-99.99,FreeWX-Wi 1.01,2013-03-18 23:32:00,
2013-03-18 16:37:00,47.5,31.3,-100.00,ENE,58,3.0,6.3,53,0.00,,,-99.99,FreeWX-Wi 1.01,2013-03-18 23:37:00,
2013-03-18 16:42:00,47.3,31.5,-100.00,ENE,57,3.0,3.6,54,0.00,,,-99.99,FreeWX-Wi 1.01,2013-03-18 23:42:00,
2013-03-18 16:47:00,47.5,32.2,-100.00,NE,55,3.0,3.1,55,0.00,,,-99.99,FreeWX-Wi 1.01,2013-03-18 23:47:00,
2013-03-18 16:52:00,47.3,31.5,-100.00,NE,54,3.0,3.6,54,0.00,,,-99.99,FreeWX-Wi 1.01,2013-03-18 23:52:00,
2013-03-18 16:57:00,47.3,30.6,30.12,NE,55,3.0,5.8,52,0.00,,,-99.99,FreeWX-Wi 1.01,2013-03-18 23:57:00,
2013-03-18 17:02:00,47.1,30.4,-100.00,ENE,57,3.0,4.0,52,0.00,,,-99.99,FreeWX-Wi 1.01,2013-03-19 00:02:00,
2013-03-18 17:07:00,47.3,30.6,30.12,ENE,58,3.0,4.9,52,0.00,,,-99.99,FreeWX-Wi 1.01,2013-03-19 00:07:00,
2013-03-18 17:12:00,47.7,31.5,30.12,ENE,57,3.0,5.4,53,0.00,,,-99.99,FreeWX-Wi 1.01,2013-03-19 00:12:00,
2013-03-18 17:17:00,48.0,31.6,30.12,ENE,58,3.0,4.0,53,0.00,,,-99.99,FreeWX-Wi 1.01,2013-03-19 00:17:00,
2013-03-18 17:22:00,48.0,30.7,-100.00,ENE,58,3.0,7.6,51,0.00,,,-99.99,FreeWX-Wi 1.01,2013-03-19 00:22:00,
2013-03-18 17:27:00,47.7,30.0,-100.00,ENE,59,3.0,5.8,50,0.00,,,-99.99,FreeWX-Wi 1.01,2013-03-19 00:27:00,
2013-03-18 17:32:00,47.5,30.2,30.12,ENE,57,3.0,4.0,51,0.00,,,-99.99,FreeWX-Wi 1.01,2013-03-19 00:32:00,
2013-03-18 17:37:00,47.5,30.7,30.12,ENE,58,2.0,5.8,52,0.00,,,-99.99,FreeWX-Wi 1.01,2013-03-19 00:37:00,
2013-03-18 17:42:00,47.5,30.7,30.12,ENE,61,2.0,5.8,52,0.00,,,-99.99,FreeWX-Wi 1.01,2013-03-19 00:42:00,
2013-03-18 17:47:00,47.5,30.2,30.12,ENE,60,2.0,6.3,51,0.00,,,-99.99,FreeWX-Wi 1.01,2013-03-19 00:47:00,
2013-03-18 17:52:00,47.3,30.0,-100.00,ENE,61,2.0,4.5,51,0.00,,,-99.99,FreeWX-Wi 1.01,2013-03-19 00:52:00,
2013-03-18 17:57:00,47.3,30.6,30.12,ENE,61,2.0,3.6,52,0.00,,,-99.99,FreeWX-Wi 1.01,2013-03-19 00:57:00,
2013-03-18 18:02:00,47.3,31.1,30.12,ENE,61,2.0,4.0,53,0.00,,,-99.99,FreeWX-Wi 1.01,2013-03-19 01:02:00,
2013-03-18 18:07:00,46.9,30.7,30.12,ENE,59,2.0,5.8,53,0.00,,,-99.99,FreeWX-Wi 1.01,2013-03-19 01:07:00,
2013-03-18 18:13:00,46.8,30.0,30.12,ENE,58,2.0,5.8,52,0.00,,,-99.99,FreeWX-Wi 1.01,2013-03-19 01:13:00,
2013-03-18 18:18:00,46.6,30.4,-100.00,ENE,60,2.0,3.1,53,0.00,,,-99.99,FreeWX-Wi 1.01,2013-03-19 01:18:00,
2013-03-18 18:23:00,46.4,30.7,30.12,ENE,61,2.0,4.0,54,0.00,,,-99.99,FreeWX-Wi 1.01,2013-03-19 01:23:00,
2013-03-18 18:28:00,46.2,30.9,-100.00,ENE,61,2.0,4.5,55,0.00,,,-99.99,FreeWX-Wi 1.01,2013-03-19 01:28:00,
2013-03-18 18:33:00,46.2,30.9,-100.00,ENE,61,2.0,4.0,55,0.00,,,-99.99,FreeWX-Wi 1.01,2013-03-19 01:33:00,
2013-03-18 18:38:00,46.0,31.3,-100.00,ENE,65,2.0,2.7,56,0.00,,,-99.99,FreeWX-Wi 1.01,2013-03-19 01:38:00,
2013-03-18 18:43:00,45.7,30.9,-100.00,ENE,63,1.0,3.1,56,0.00,,,-99.99,FreeWX-Wi 1.01,2013-03-19 01:43:00,
2013-03-18 18:48:00,45.5,30.2,-100.00,ENE,61,2.0,5.8,55,0.00,,,-99.99,FreeWX-Wi 1.01,2013-03-19 01:48:00,
2013-03-18 18:53:00,45.3,30.6,-100.00,ENE,61,1.0,3.6,56,0.00,,,-99.99,FreeWX-Wi 1.01,2013-03-19 01:53:00,
2013-03-18 18:58:00,45.0,30.2,-100.00,ENE,61,1.0,4.0,56,0.00,,,-99.99,FreeWX-Wi 1.01,2013-03-19 01:58:00,
2013-03-18 19:03:00,44.8,30.0,-100.00,ENE,62,1.0,4.0,56,0.00,,,-99.99,FreeWX-Wi 1.01,2013-03-19 02:03:00,
2013-03-18 19:08:00,44.4,29.7,30.12,ENE,61,1.0,4.0,56,0.00,,,-99.99,FreeWX-Wi 1.01,2013-03-19 02:08:00,
2013-03-18 19:13:00,44.2,29.5,30.12,ENE,60,1.0,3.1,56,0.00,,,-99.99,FreeWX-Wi 1.01,2013-03-19 02:13:00,
2013-03-18 19:18:00,43.9,29.3,-100.00,ENE,60,1.0,0.0,56,0.00,,,-99.99,FreeWX-Wi 1.01,2013-03-19 02:18:00,
2013-03-18 19:23:00,43.5,28.9,-100.00,ENE,60,1.0,3.6,56,0.00,,,-99.99,FreeWX-Wi 1.01,2013-03-19 02:23:00,
2013-03-18 19:28:00,43.5,28.9,-100.00,ENE,58,1.0,4.0,56,0.00,,,-99.99,FreeWX-Wi 1.01,2013-03-19 02:28:00,
2013-03-18 19:33:00,43.3,28.8,30.12,ENE,58,1.0,3.1,56,0.00,,,-99.99,FreeWX-Wi 1.01,2013-03-19 02:33:00,
2013-03-18 19:38:00,43.2,28.9,30.12,ENE,57,1.0,0.0,57,0.00,,,-99.99,FreeWX-Wi 1.01,2013-03-19 02:38:00,
2013-03-18 19:43:00,42.8,29.5,-100.00,NE,56,1.0,0.0,59,0.00,,,-99.99,FreeWX-Wi 1.01,2013-03-19 02:43:00,
2013-03-18 19:48:00,42.4,29.1,30.12,North,-999,0.0,3.1,59,0.00,,,-99.99,FreeWX-Wi 1.01,2013-03-19 02:48:00,
2013-03-18 19:53:00,42.3,29.3,30.12,North,-999,0.0,0.0,60,0.00,,,-99.99,FreeWX-Wi 1.01,2013-03-19 02:53:00,
2013-03-18 19:58:00,42.1,29.7,-100.00,North,-999,0.0,0.0,61,0.00,,,-99.99,FreeWX-Wi 1.01,2013-03-19 02:58:00,
2013-03-18 20:03:00,41.9,29.5,30.12,North,-999,0.0,0.0,61,0.00,,,-99.99,FreeWX-Wi 1.01,2013-03-19 03:03:00,
2013-03-18 20:08:00,41.9,29.1,30.12,North,-999,0.0,3.1,60,0.00,,,-99.99,FreeWX-Wi 1.01,2013-03-19 03:08:00,
2013-03-18 20:13:00,42.1,28.8,30.12,North,-999,0.0,2.2,59,0.00,,,-99.99,FreeWX-Wi 1.01,2013-03-19 03:13:00,
2013-03-18 20:18:00,42.1,28.8,-100.00,North,-999,0.0,2.2,59,0.00,,,-99.99,FreeWX-Wi 1.01,2013-03-19 03:18:00,
2013-03-18 20:23:00,41.9,29.1,-100.00,North,-999,0.0,0.0,60,0.00,,,-99.99,FreeWX-Wi 1.01,2013-03-19 03:23:00,
2013-03-18 20:28:00,41.7,29.3,30.12,North,-999,0.0,0.0,61,0.00,,,-99.99,FreeWX-Wi 1.01,2013-03-19 03:28:00,
2013-03-18 20:33:00,41.5,29.5,30.12,North,-999,0.0,0.0,62,0.00,,,-99.99,FreeWX-Wi 1.01,2013-03-19 03:33:00,
2013-03-18 20:38:00,41.2,29.1,30.12,North,-999,0.0,0.0,62,0.00,,,-99.99,FreeWX-Wi 1.01,2013-03-19 03:38:00,
2013-03-18 20:43:00,41.0,29.3,30.12,North,-999,0.0,0.0,63,0.00,,,-99.99,FreeWX-Wi 1.01,2013-03-19 03:43:00,
2013-03-18 20:48:00,40.8,29.7,30.12,North,-999,0.0,0.0,64,0.00,,,-99.99,FreeWX-Wi 1.01,2013-03-19 03:48:00,
2013-03-18 20:53:00,40.6,30.2,30.12,North,-999,0.0,0.0,66,0.00,,,-99.99,FreeWX-Wi 1.01,2013-03-19 03:53:00,
2013-03-18 20:58:00,40.3,29.5,-100.00,North,-999,0.0,0.0,65,0.00,,,-99.99,FreeWX-Wi 1.01,2013-03-19 03:58:00,
2013-03-18 21:03:00,39.9,29.1,30.12,North,-999,0.0,0.0,65,0.00,,,-99.99,FreeWX-Wi 1.01,2013-03-19 04:03:00,
2013-03-18 21:08:00,39.6,29.1,30.12,North,-999,0.0,0.0,66,0.00,,,-99.99,FreeWX-Wi 1.01,2013-03-19 04:08:00,
2013-03-18 21:13:00,39.2,28.8,30.12,North,-999,0.0,0.0,66,0.00,,,-99.99,FreeWX-Wi 1.01,2013-03-19 04:13:00,
2013-03-18 21:18:00,38.7,28.6,30.12,North,-999,0.0,0.0,67,0.00,,,-99.99,FreeWX-Wi 1.01,2013-03-19 04:18:00,
2013-03-18 21:23:00,38.3,28.4,30.12,North,-999,0.0,0.0,67,0.00,,,-99.99,FreeWX-Wi 1.01,2013-03-19 04:23:00,
2013-03-18 21:28:00,37.9,28.0,30.12,North,-999,0.0,0.0,67,0.00,,,-99.99,FreeWX-Wi 1.01,2013-03-19 04:28:00,
2013-03-18 21:33:00,37.4,27.9,-100.00,North,-999,0.0,0.0,68,0.00,,,-99.99,FreeWX-Wi 1.01,2013-03-19 04:33:00,
2013-03-18 21:38:00,37.0,27.9,30.12,North,-999,0.0,0.0,69,0.00,,,-99.99,FreeWX-Wi 1.01,2013-03-19 04:38:00,
2013-03-18 21:43:00,36.9,27.7,30.12,North,-999,0.0,0.0,69,0.00,,,-99.99,FreeWX-Wi 1.01,2013-03-19 04:43:00,
2013-03-18 21:48:00,36.9,28.0,-100.00,North,-999,0.0,0.0,70,0.00,,,-99.99,FreeWX-Wi 1.01,2013-03-19 04:48:00,
2013-03-18 21:53:00,36.7,27.9,30.12,North,-999,0.0,0.0,70,0.00,,,-99.99,FreeWX-Wi 1.01,2013-03-19 04:53:00,
2013-03-18 21:58:00,36.5,28.0,30.12,North,-999,0.0,0.0,71,0.00,,,-99.99,FreeWX-Wi 1.01,2013-03-19 04:58:00,
2013-03-18 22:03:00,36.3,28.2,30.12,North,-999,0.0,0.0,72,0.00,,,-99.99,FreeWX-Wi 1.01,2013-03-19 05:03:00,
2013-03-18 22:08:00,36.3,28.6,30.12,North,-999,0.0,0.0,73,0.00,,,-99.99,FreeWX-Wi 1.01,2013-03-19 05:08:00,
2013-03-18 22:13:00,36.3,28.8,30.12,North,-999,0.0,0.0,74,0.00,,,-99.99,FreeWX-Wi 1.01,2013-03-19 05:13:00,
2013-03-18 22:18:00,36.3,28.8,30.12,North,-999,0.0,0.0,74,0.00,,,-99.99,FreeWX-Wi 1.01,2013-03-19 05:18:00,
2013-03-18 22:23:00,36.3,29.1,30.12,North,-999,0.0,0.0,75,0.00,,,-99.99,FreeWX-Wi 1.01,2013-03-19 05:23:00,
2013-03-18 22:28:00,36.3,29.1,30.12,North,-999,0.0,0.0,75,0.00,,,-99.99,FreeWX-Wi 1.01,2013-03-19 05:28:00,
2013-03-18 22:33:00,36.1,29.3,30.12,North,-999,0.0,0.0,76,0.00,,,-99.99,FreeWX-Wi 1.01,2013-03-19 05:33:00,
2013-03-18 22:38:00,36.0,29.1,30.12,North,-999,0.0,0.0,76,0.00,,,-99.99,FreeWX-Wi 1.01,2013-03-19 05:38:00,
2013-03-18 22:43:00,35.6,28.8,30.12,North,-999,0.0,0.0,76,0.00,,,-99.99,FreeWX-Wi 1.01,2013-03-19 05:43:00,
2013-03-18 22:48:00,35.4,28.9,30.12,North,-999,0.0,2.2,77,0.00,,,-99.99,FreeWX-Wi 1.01,2013-03-19 05:48:00,
2013-03-18 22:53:00,35.4,28.9,30.15,North,-999,0.0,0.0,77,0.00,,,-99.99,FreeWX-Wi 1.01,2013-03-19 05:53:00,
2013-03-18 22:58:00,35.2,28.8,30.15,North,-999,0.0,0.0,77,0.00,,,-99.99,FreeWX-Wi 1.01,2013-03-19 05:58:00,
2013-03-18 23:03:00,35.1,28.9,30.15,North,-999,0.0,0.0,78,0.00,,,-99.99,FreeWX-Wi 1.01,2013-03-19 06:03:00,
2013-03-18 23:08:00,35.2,29.5,30.15,North,-999,0.0,0.0,79,0.00,,,-99.99,FreeWX-Wi 1.01,2013-03-19 06:08:00,
2013-03-18 23:13:00,35.1,29.3,30.15,North,-999,0.0,0.0,79,0.00,,,-99.99,FreeWX-Wi 1.01,2013-03-19 06:13:00,
2013-03-18 23:18:00,35.1,29.3,30.15,North,-999,0.0,0.0,79,0.00,,,-99.99,FreeWX-Wi 1.01,2013-03-19 06:18:00,
2013-03-18 23:23:00,35.1,29.5,30.15,North,-999,0.0,0.0,80,0.00,,,-99.99,FreeWX-Wi 1.01,2013-03-19 06:23:00,
2013-03-18 23:28:00,35.1,29.5,30.15,North,-999,0.0,0.0,80,0.00,,,-99.99,FreeWX-Wi 1.01,2013-03-19 06:28:00,
2013-03-18 23:33:00,35.2,30.0,30.15,North,-999,0.0,0.0,81,0.00,,,-99.99,FreeWX-Wi 1.01,2013-03-19 06:33:00,
2013-03-18 23:38:00,35.4,30.6,30.15,North,-999,0.0,0.0,82,0.00,,,-99.99,FreeWX-Wi 1.01,2013-03-19 06:38:00,
2013-03-18 23:43:00,35.2,30.4,30.15,North,-999,0.0,0.0,82,0.00,,,-99.99,FreeWX-Wi 1.01,2013-03-19 06:43:00,
2013-03-18 23:48:00,35.1,30.2,30.15,North,-999,0.0,0.0,82,0.00,,,-99.99,FreeWX-Wi 1.01,2013-03-19 06:48:00,
2013-03-18 23:53:00,35.2,30.6,-100.00,North,-999,0.0,0.0,83,0.00,,,-99.99,FreeWX-Wi 1.01,2013-03-19 06:53:00,
2013-03-18 23:58:00,35.2,30.6,30.12,North,-999,0.0,0.0,83,0.00,,,-99.99,FreeWX-Wi 1.01,2013-03-19 06:58:00,